Find Lyra-1

NORAD ID: 62664 Int'l Des: 2025-009 Owner: ECHOAU Country: AU operational
LEOCIRCULARRETROGRADESSO

Current View

Loading 3D Globe...

About Lyra-1

Description loading...

Upcoming Passes

Passes for default location (London). Set your location on the main map for personalized predictions.

Altitude History

Loading altitude history...

Two-Line Element Set

1 62664U 25009BH 26148.76363676 .00012898 00000-0 62849-3 0 9995
2 62664 97.3987 223.7592 0007605 256.0887 103.9502 15.18444857 75473
Epoch: May 28, 2026 • Age: 30 hours

Current Status

Altitude 528.2 km
Velocity 7.60 km/s
Sub-Earth Point 72.82°N, 57.79°W
Launch Date Jan 14, 2025
Age 1.3 years
Type other

Technical Details

Classification Payload
Mass 74.00 kg
Dry Mass 74.00 kg
Total Mass 74.00 kg
Length 0.60 m
Diameter 0.50 m
Span 2.00 m
Shape Box
Manufacturer ADIG
Bus Type Corvus XL
Phase Status In Orbit
Owner/State ECHOAU/AU

Most Searched